Regional Weather Roundup
Issued by NWS

Home | Current Version | Previous Version | Graphics & Text | Print | Product List | Glossary On
Versions: 1 2 3 4 5 6 7 8 9 10 11 12 13 14 15 16 17 18 19 20 21 22 23 24 25 26 27 28 29 30 31 32 33 34 35 36 37 38 39 40 41 42 43 44 45 46 47 48 49 50
000
ASUS43 KMPX 241510
RWRMN
WEATHER ROUNDUP FOR MINNESOTA
NATIONAL WEATHER SERVICE TWIN CITIES/CHANHASSEN MN
900 AM CST FRI NOV 24 2017


NOTE: "FAIR" INDICATES FEW OR NO CLOUDS BELOW 12,000 FEET WITH NO
SIGNIFICANT WEATHER AND/OR OBSTRUCTIONS TO VISIBILITY. N/A MEANS
CURRENT SKY AND/OR WEATHER CONDITIONS ARE NOT AVAILABLE.

MNZ060>063-068>070-241600-
   Twin Cities Metro

CITY           SKY/WX    TMP DP  RH WIND       PRES   REMARKS
TWIN CITIES    CLOUDY    50  40  68 SW9       29.34F
ST PAUL        PTSUNNY   45  39  79 S3        29.35F
CRYSTAL        MOSUNNY   47  36  65 S7        29.31F
BLAINE         MOSUNNY   48  39  71 S10       29.31F
LAKEVILLE      MOSUNNY   48  39  71 SW5       29.35S
EDEN PRAIRIE   PTSUNNY   47  38  71 SW10      29.33F
SOUTH ST PAUL  MOSUNNY   49  38  66 S3        29.35S
LAKE ELMO      FAIR      46  37  71 S13       29.35S
$$
MNZ001>005-007-008-013>017-022>024-027-028-241600-
   Northwest Minnesota

CITY           SKY/WX    TMP DP  RH WIND       PRES   REMARKS
BEMIDJI        RAIN      41  40  93 SW6       29.26F
HALLOCK        CLOUDY    36  34  93 SW5       29.33R
ROSEAU         CLOUDY    37  34  87 W7        29.30R
WARROAD        CLOUDY    37  34  87 W6        29.29R
THIEF RVR FALL MIX PCPN  37  35  92 W9        29.32R
CROOKSTON      CLOUDY    37  36  93 NW6       29.34R
FOSSTON        CLOUDY    37  37 100 W7        29.32R
DETROIT LAKES  LGT RAIN  45  39  81 SW3       29.33F
MOORHEAD       DRIZZLE   41  37  87 CALM      29.35R
PARK RAPIDS    LGT RAIN  44  38  79 NW13      29.31R
MAHNOMEN       CLOUDY    40  39  95 S5        29.29F
$$
MNZ006-009>011-018-025>026-241600-
   North Central Minnesota

CITY           SKY/WX    TMP DP  RH WIND       PRES   REMARKS
BAUDETTE       CLOUDY    38  35  89 W5        29.25R
FLAG ISLAND    CLOUDY    36  32  87 NW8       29.25R
INTL FALLS     CLOUDY    41  34  76 W5        29.22R
WASKISH        LGT RAIN  37  36  93 SW5       29.25F
BIG FORK       LGT RAIN  39  37  93 CALM      29.25S
LONGVILLE      RAIN      41  39  93 SW3       29.29R
GRAND RAPIDS   LGT RAIN  45  38  76 NW8       29.27F
CRANE LAKE     CLOUDY    36  34  93 S3        29.24S
ORR            CLOUDY    39  36  87 CALM      29.21R
COOK           RAIN      39  37  93 SW3       29.24F
WALKER         CLOUDY    44  39  80 W13G18    29.29R
$$
MNZ012-019>021-037-241600-
   Northeast Minnesota

CITY           SKY/WX    TMP DP  RH WIND       PRES   REMARKS
DULUTH         LGT RAIN  38  35  89 W10       29.25R
ELY            CLOUDY    39  34  81 SW6       29.23S
HIBBING        LGT RAIN  35  34  96 NW6       29.25S WCI  30
EVELETH        CLOUDY    37  33  85 NW3       29.25F
DULUTH HARBOR  RAIN      43  37  81 W12       29.29R
TWO HARBORS    DRIZZLE   41  36  81 W8        29.24R
SILVER BAY     LGT RAIN  43  37  81 W5        29.21S
GRAND MARAIS     N/A     40  36  86 W5        29.22R
G MARAIS ARPRT CLOUDY    41  34  75 W6        29.21R
$$
MNZ029>031-032-039>041-046>048-054>057-064-241600-
   West Central Minnesota

CITY           SKY/WX    TMP DP  RH WIND       PRES   REMARKS
FERGUS FALLS   LGT RAIN  45  37  76 NW13      29.38S
WHEATON        CLOUDY    50  37  62 W7        29.40R
MORRIS         PTSUNNY   48  37  66 NW13      29.36R
ALEXANDRIA     LGT RAIN  47  38  71 W13       29.35R
ELBOW LAKE     FAIR      43  38  83 NW10      29.37S
WADENA         CLOUDY    45  37  76 W9        29.33R
GLENWOOD       LGT RAIN  45  39  81 W14       29.35R
APPLETON         N/A     46  37  71 W7        29.37R
BENSON         MOSUNNY   37  36  93 CALM      29.36F
ORTONVILLE     MOSUNNY   50  36  57 NW13      29.38R
MADISON        PTSUNNY   54  37  54 W12       29.38S
WILLMAR        FAIR      45  39  81 W8        29.37R
$$
MNZ033>034-036-042>043-049>051-058-059-241600-
   Central Minnesota

CITY           SKY/WX    TMP DP  RH WIND       PRES   REMARKS
ST CLOUD       MOSUNNY   44  38  79 SW6       29.32R
SAUK CENTRE    FAIR      47  38  70 W10       29.34R
PAYNESVILLE    SUNNY     47  40  77 W9        29.34R
AITKIN         MOSUNNY   41  36  81 SW5       29.27F
PINE RIVER     LGT RAIN  41  36  81 CALM      29.34R
BRAINERD       PTSUNNY   42  36  79 CALM      29.30S
STAPLES        LGT RAIN  46  37  71 NW6       29.31S
LONG PRAIRIE   FAIR      46  36  66 SW7       29.32S
LITTLE FALLS   MOSUNNY   43  32  65 CALM      29.31F
LITCHFIELD     MOSUNNY   46  39  76 W6        29.35R
BUFFALO        SUNNY     44  37  76 SW9       29.34R
MAPLE LAKE     SUNNY     45  39  81 SW6       29.34R
HUTCHINSON     CLOUDY    43  38  84 S3        29.35S
$$
MNZ037-044-045-052-053-241600-
   East Central Minnesota

CITY           SKY/WX    TMP DP  RH WIND       PRES   REMARKS
PRINCETON      SUNNY     46  37  71 SW7       29.33R
MORA           CLOUDY    41  34  75 W7        29.33R
CAMBRIDGE      SUNNY     46  36  66 SW6       29.32R
RUSH CITY      SUNNY     46  37  73 S7        29.31F
MOOSE LAKE     CLOUDY    37  34  87 SW5       29.29R
HINCKLEY       FAIR      43  37  81 W8        29.32R
CLOQUET        LGT RAIN  39  34  81 SW7       29.28R
MCGREGOR       MOSUNNY   43  36  75 S5        29.28F
$$
MNZ071>073-080-081-089-090-097-098-241600-
   Southwest Minnesota

CITY           SKY/WX    TMP DP  RH WIND       PRES   REMARKS
MONTEVIDEO     MOSUNNY   46  39  76 NW7       29.37R
GRANITE FALLS  MOSUNNY   49  41  72 W8        29.39R
CANBY          CLOUDY    56  38  50 NW14      29.39R
MARSHALL       MOSUNNY   56  39  53 NW18      29.39R
REDWOOD FALLS  SUNNY     49  38  65 SW12      29.34F
OLIVIA         SUNNY     45  37  76 W8        29.36R
PIPESTONE      SUNNY     39  37  93 W7        29.41S
WINDOM         SUNNY     48  34  57 SW9       29.39F
WORTHINGTON    SUNNY     48  39  71 SW9       29.40F
JACKSON        SUNNY     45  37  76 SW13      29.40F
SLAYTON        SUNNY     50  40  66 W14G20    29.39F
$$
MNZ065>067-074>077-082>085-091>093-241600-
   South Central Minnesota

CITY           SKY/WX    TMP DP  RH WIND       PRES   REMARKS
MANKATO        SUNNY     47  38  71 SW9       29.40R
NEW ULM        SUNNY     46  37  71 CALM      29.36S
ST JAMES       SUNNY     46  39  76 SW5       29.39S
FAIRMONT       SUNNY     45  38  76 SW14      29.39F
GLENCOE        MOSUNNY   44  39  81 S7        29.34F
FARIBAULT      MOSUNNY   48  37  66 S10G16    29.38F
OWATONNA       SUNNY     48  37  66 S16       29.37F
WASECA         SUNNY     48  37  66 SW14      29.40F
ALBERT LEA     SUNNY     48  36  61 S10G17    29.41F
$$
MNZ078>079-086>088-094>096-241600-
   Southeast Minnesota

CITY           SKY/WX    TMP DP  RH WIND       PRES   REMARKS
ROCHESTER      SUNNY     48  38  68 S20       29.42F
RED WING       SUNNY     48  36  61 S6        29.36F
STANTON        SUNNY     50  39  65 SW10      29.36F
DODGE CENTER   SUNNY     45  36  70 SW17G28   29.40F
WINONA         SUNNY     50  36  57 SW3       29.43F
PRESTON        SUNNY     47  35  63 SW15G23   29.45F
$$
ABBREVIATIONS USED IN REMARKS
   TC - TEMPERATURES IN CELSIUS
  WCI - WIND CHILL INDEX
   HX - HEAT INDEX
  VSB - VISIBILITY
$$




USA.gov is the U.S. government's official web portal to all federal, state and local government web resources and services.